Location: Boiro
(42.6475°N, 8.8834°W)
Time: 20:11:11
(UTC+01:00)

Vanguard 3 - Pass Details

Date: 09 December 2021
Orbit: 508 x 3260 km, 33.3° (Epoch: 17 January)

Event Time Altitude Azimuth Distance (km) Brightness Sun altitude
Rises 01:08:50 0° 194° (SSW) 5,755 - -69.8°
Reaches altitude 10° 01:13:22 10° 182° (S) 5,151 - -69.9°
Maximum altitude 01:25:03 25° 135° (SE) 4,751 - -70.2°
Exits shadow 01:36:54 13° 95° (E) 5,918 11.4 -70.1°
Drops below altitude 10° 01:38:53 10° 91° (E) 6,201 11.6 -70.0°
Sets 01:45:00 0° 80° (E) 7,155 12.1 -69.9°
